TimePDT,TemperatureF,Dew PointF,Humidity,Sea Level PressureIn,VisibilityMPH,Wind Direction,Wind SpeedMPH,Gust SpeedMPH,PrecipitationIn,Events,Conditions,WindDirDegrees,DateUTC
12:53 AM,51.1,43.0,74,29.92,9.0,Calm,Calm,-,N/A,,Clear,0,2013-10-13 07:53:00
1:53 AM,50.0,43.0,77,29.91,8.0,Calm,Calm,-,N/A,,Clear,0,2013-10-13 08:53:00
2:53 AM,46.9,42.1,83,29.91,7.0,Calm,Calm,-,N/A,,Clear,0,2013-10-13 09:53:00
3:53 AM,43.0,41.0,93,29.91,7.0,Calm,Calm,-,N/A,,Clear,0,2013-10-13 10:53:00
4:53 AM,43.0,39.0,86,29.93,7.0,Calm,Calm,-,N/A,,Clear,0,2013-10-13 11:53:00
5:53 AM,41.0,37.9,89,29.94,7.0,Calm,Calm,-,N/A,,Clear,0,2013-10-13 12:53:00
6:53 AM,42.1,39.0,89,29.96,7.0,Calm,Calm,-,N/A,,Clear,0,2013-10-13 13:53:00
7:53 AM,41.0,41.0,100,29.97,10.0,Calm,Calm,-,N/A,,Clear,0,2013-10-13 14:53:00
8:53 AM,51.1,45.0,80,29.99,10.0,NW,4.6,-,N/A,,Clear,320,2013-10-13 15:53:00
9:53 AM,59.0,45.0,60,30.00,8.0,NNW,6.9,-,N/A,,Clear,330,2013-10-13 16:53:00
10:53 AM,66.0,42.1,42,30.00,8.0,Calm,Calm,-,N/A,,Clear,0,2013-10-13 17:53:00
11:53 AM,69.1,37.0,31,30.00,8.0,Calm,Calm,-,N/A,,Clear,0,2013-10-13 18:53:00
12:53 PM,73.0,35.1,25,29.98,8.0,Calm,Calm,-,N/A,,Clear,0,2013-10-13 19:53:00
1:53 PM,75.0,30.9,20,29.96,10.0,NNE,4.6,-,N/A,,Clear,20,2013-10-13 20:53:00
2:53 PM,75.9,37.9,25,29.95,8.0,SSW,6.9,-,N/A,,Clear,200,2013-10-13 21:53:00
3:53 PM,75.0,39.0,27,29.95,8.0,SW,9.2,-,N/A,,Clear,230,2013-10-13 22:53:00
4:53 PM,73.0,41.0,31,29.97,8.0,WSW,9.2,-,N/A,,Clear,250,2013-10-13 23:53:00
5:53 PM,71.1,39.9,32,29.98,8.0,South,4.6,-,N/A,,Clear,180,2013-10-14 00:53:00
6:53 PM,63.0,39.0,41,29.99,9.0,SE,5.8,-,N/A,,Clear,140,2013-10-14 01:53:00
7:53 PM,57.0,44.1,62,30.01,9.0,SSE,4.6,-,N/A,,Clear,160,2013-10-14 02:53:00
8:53 PM,53.1,44.1,71,30.02,8.0,Calm,Calm,-,N/A,,Clear,0,2013-10-14 03:53:00
9:53 PM,50.0,43.0,77,30.04,8.0,Calm,Calm,-,N/A,,Clear,0,2013-10-14 04:53:00
10:53 PM,48.0,43.0,83,30.04,7.0,Calm,Calm,-,N/A,,Clear,0,2013-10-14 05:53:00
11:53 PM,46.9,42.1,83,30.05,7.0,Calm,Calm,-,N/A,,Clear,0,2013-10-14 06:53:00